This is the latest recevied weather packets stored in our database for station/object HB0RER-13. If no packets are shown the sender has not sent any weather packets the latest 10 day(s).
| Time | Temp. | Humidity | Pressure | Rain* | Wind** | Luminosity | Snow |
|---|---|---|---|---|---|---|---|
| 1777753672 | 15° C | 50% | 1018 hPa | 0 mm | - | - | - |
| 1777745245 | 20.56° C | 32% | 1017.3 hPa | 0 mm | - | - | - |
| 1777741632 | 22.78° C | 30% | 1017.4 hPa | 0 mm | - | - | - |
| 1777739223 | 23.33° C | 24% | 1017.7 hPa | 0 mm | - | - | - |
| 1777737417 | 23.33° C | 25% | 1017.9 hPa | 0 mm | - | - | - |
| 1777736815 | 23.33° C | 27% | 1018 hPa | 0 mm | - | - | - |
| 1777735613 | 23.33° C | 30% | 1018.2 hPa | 0 mm | - | - | - |
| 1777734410 | 23.33° C | 34% | 1018.4 hPa | 0 mm | - | - | - |
| 1777733204 | 23.33° C | 35% | 1018.8 hPa | 0 mm | - | - | - |
| 1777732601 | 23.33° C | 34% | 1018.9 hPa | 0 mm | - | - | - |
| 1777729591 | 23.33° C | 34% | 1019.6 hPa | 0 mm | - | - | - |
| 1777727186 | 23.33° C | 36% | 1020.1 hPa | 0 mm | - | - | - |
| 1777725979 | 23.33° C | 38% | 1020.3 hPa | 0 mm | - | - | - |
| 1777721766 | 22.78° C | 36% | 1021.5 hPa | 0 mm | - | - | - |
| 1777706719 | 19.44° C | 46% | 1023.9 hPa | 0 mm | - | - | - |
| 1777705516 | 19.44° C | 48% | 1024 hPa | 0 mm | - | - | - |
| 1777703728 | 18.33° C | 51% | 1024.1 hPa | 0 mm | - | - | - |
| 1777702523 | 17.78° C | 57% | 1024.1 hPa | 0 mm | - | - | - |
| 1777701901 | 17.78° C | 58% | 1024.1 hPa | 0 mm | - | - | - |
| 1777699492 | 13.33° C | 73% | 1024.1 hPa | 0 mm | - | - | - |
| 1777694073 | 8.33° C | 75% | 1023.7 hPa | 0 mm | - | - | - |
| 1777691665 | 8.89° C | 74% | 1023.8 hPa | 0 mm | - | - | - |
| 1777688053 | 9.44° C | 73% | 1023.8 hPa | 0 mm | - | - | - |
| 1777687451 | 9.44° C | 73% | 1023.7 hPa | 0 mm | - | - | - |
| 1777686248 | 9.44° C | 73% | 1023.7 hPa | 0 mm | - | - | - |
* Rain latest hour (hover to see other rain measurements)
** Current wind speed in m/s (hover to see current wind gust speed)